Home   Weather   Thônex   Past weeks

Flag for Switzerland Past Weather in Thônex, Geneva, Switzerland — Yesterday and Last 2 Weeks

Now
72 °F

Partly sunny.


Feels Like: 75 °F
Forecast: 58 / 71 °F
Wind: 6 mph from South

Location: Geneva Cointrin Airport

Current Time: Aug 18, 2017 at 8:31:29 pm

Latest Report: Aug 18, 2017 at 7:50 pm


Visibility: N/A

Pressure: 30.09 "Hg

Humidity: 69%

Dew Point: 61 °F

Location of ThônexLocation

Past Weather in Thônex — Graph

°F

Thônex Temperature Yesterday

Maximum temperature yesterday: 86 °F (at 4:50 pm)
Minimum temperature yesterday: 61 °F (at 4:50 am)
Average temperature yesterday: 73 °F

High & Low Weather Summary for the Past Weeks

 TemperatureHumidityPressure
High91 °F (Aug 4, 2:50 pm)100% (Aug 8, 7:20 am)30.21 "Hg (Aug 8, 7:20 am)
Low50 °F (Aug 12, 2:50 am)27% (Aug 4, 3:50 pm)29.86 "Hg (Aug 8, 5:20 am)
Average69 °F68%30.09 "Hg
* Reported Aug 3 7:20 pm — Aug 18 7:20 pm, Thônex. Weather by CustomWeather, © 2017

Note: Actual official high and low records may vary slightly from our data, if they occured in-between our weather recording intervals... More about our weather records

Advertising

Thônex Weather History for the Previous 24 Hours

Scroll right to see more
 ConditionsComfort  
Time TempWeatherWind HumidityBarometerVisibility
7:20 pm
Fri, Aug 18
73 °FPartly sunny.2 mph57%30.07 "HgN/A
6:50 pm72 °FPartly sunny.9 mph65%30.07 "HgN/A
6:20 pm72 °FBroken clouds.9 mph69%30.07 "HgN/A
5:50 pm73 °FScattered showers. Partly sunny.23 mph65%29.98 "HgN/A
5:20 pm72 °FThunderstorms. Broken clouds.12 mph78%29.98 "HgN/A
4:50 pm82 °FThunderstorms. Broken clouds.14 mph45%29.95 "HgN/A
4:20 pm86 °FBroken clouds.8 mph40%29.92 "HgN/A
3:50 pm88 °FScattered clouds.13 mph35%29.95 "HgN/A
2:50 pm90 °FPassing clouds.16 mph33%29.95 "HgN/A
2:20 pm88 °FPassing clouds.13 mph38%29.98 "HgN/A
1:50 pm88 °FPassing clouds.15 mph35%29.98 "HgN/A
1:20 pm88 °FPassing clouds.10 mph40%29.98 "HgN/A
12:50 pm82 °FPassing clouds.10 mph51%30.01 "HgN/A
12:20 pm82 °FPassing clouds.6 mph51%30.04 "HgN/A
11:50 am79 °FPassing clouds.7 mph58%30.04 "HgN/A
11:20 am79 °FPassing clouds.6 mph58%30.04 "HgN/A
10:50 am77 °FPassing clouds.3 mph57%30.07 "HgN/A
10:20 am75 °FSunny.2 mph61%30.07 "Hg10 mi
9:50 am73 °FSunny.2 mph61%30.07 "Hg10 mi
9:20 am72 °FSunny.1 mph69%30.07 "Hg10 mi
8:50 am70 °FSunny.2 mph69%30.09 "Hg10 mi
8:20 am66 °FSunny.1 mph78%30.09 "Hg10 mi
7:50 am64 °FSunny.3 mph83%30.09 "Hg10 mi
7:20 am63 °FSunny.2 mph83%30.09 "Hg10 mi
6:50 am61 °FSunny.1 mph88%30.09 "Hg10 mi
6:20 am61 °FClear.1 mph88%30.09 "Hg10 mi
5:50 am61 °FClear.1 mph88%30.09 "Hg10 mi
5:20 am61 °FCool.3 mph88%30.09 "HgN/A
4:50 am61 °FClear.2 mph88%30.09 "HgN/A
4:20 am63 °FClear.2 mph83%30.09 "Hg10 mi
3:50 am63 °FClear.1 mph83%30.09 "Hg10 mi
3:20 am63 °FClear.2 mph83%30.09 "Hg10 mi
2:50 am63 °FClear.1 mph88%30.09 "Hg10 mi
2:20 am64 °FClear.1 mph83%30.09 "Hg10 mi
1:50 am64 °FClear.2 mph83%30.09 "Hg10 mi
1:20 am64 °FMild.2 mph88%30.09 "HgN/A
12:50 am66 °FClear.1 mph83%30.09 "Hg10 mi
12:20 am68 °FClear.2 mph78%30.09 "HgN/A
11:50 pm
Thu, Aug 17
68 °FClear.1 mph78%30.09 "HgN/A
11:20 pm70 °FClear.1 mph73%30.09 "Hg10 mi
10:50 pm72 °FClear.1 mph65%30.09 "Hg10 mi
10:20 pm73 °FClear.5 mph65%30.09 "Hg10 mi
9:50 pm75 °FClear.6 mph61%30.09 "Hg10 mi
9:20 pm75 °FPassing clouds.3 mph57%30.09 "HgN/A
8:50 pm77 °FClear.1 mph57%30.09 "Hg10 mi
8:20 pm81 °FPassing clouds.2 mph48%30.09 "HgN/A
Weather by CustomWeather, © 2017

See weather overviewHow to use our weather pages